| time (UTC) | temp F | wind direction | speed MPH | gust MPH | rain 1hr in | rain 24hr in | rain mn in | humidity % | barometer mb |
| 20260506132006 | 60 | 114 | 4.0 | 7.0 | 0.00 | 0.00 | 0.00 | 81 | 1010.0 |
| 20260506131503 | 61 | 230 | 2.0 | 3.0 | 0.00 | 0.00 | 0.00 | 80 | 1010.0 |
| 20260506130954 | 62 | 234 | 2.0 | 2.0 | 0.00 | 0.00 | 0.00 | 79 | 1010.1 |
| 20260506130450 | 61 | 81 | 1.0 | 2.0 | 0.00 | 0.00 | 0.00 | 79 | 1009.9 |
| 20260506125948 | 61 | 93 | 1.0 | 2.0 | 0.00 | 0.00 | 0.00 | 80 | 1009.8 |
| 20260506125446 | 60 | 85 | 1.0 | 2.0 | 0.00 | 0.00 | 0.00 | 81 | 1009.7 |
| 20260506124944 | 60 | 228 | 4.0 | 5.0 | 0.00 | 0.00 | 0.00 | 81 | 1009.9 |
| 20260506124441 | 60 | 211 | 3.0 | 5.0 | 0.00 | 0.00 | 0.00 | 82 | 1010.0 |
| 20260506123939 | 59 | 261 | 3.0 | 3.0 | 0.00 | 0.00 | 0.00 | 82 | 1009.6 |
| 20260506123438 | 60 | 261 | 2.0 | 2.0 | 0.00 | 0.00 | 0.00 | 82 | 1009.9 |
| 20260506122935 | 60 | 58 | 3.0 | 3.0 | 0.00 | 0.00 | 0.00 | 82 | 1010.0 |
| 20260506122431 | 60 | 132 | 3.0 | 3.0 | 0.00 | 0.00 | 0.00 | 81 | 1010.0 |
| 20260506121930 | 61 | 110 | 3.0 | 5.0 | 0.00 | 0.00 | 0.00 | 79 | 1010.0 |
| 20260506121426 | 62 | 256 | 2.0 | 3.0 | 0.00 | 0.00 | 0.00 | 78 | 1009.9 |
| 20260506120923 | 62 | 249 | 0.0 | 2.0 | 0.00 | 0.00 | 0.00 | 78 | 1010.1 |
| 20260506120421 | 62 | 87 | 0.0 | 2.0 | 0.00 | 0.00 | 0.00 | 79 | 1010.1 |
| 20260506115918 | 61 | 64 | 2.0 | 2.0 | 0.00 | 0.00 | 0.00 | 80 | 1010.1 |
| 20260506115416 | 61 | 209 | 2.0 | 3.0 | 0.00 | 0.00 | 0.00 | 80 | 1010.2 |
| 20260506114914 | 61 | 36 | 1.0 | 2.0 | 0.00 | 0.00 | 0.00 | 80 | 1009.9 |
| 20260506114411 | 60 | 114 | 2.0 | 2.0 | 0.00 | 0.00 | 0.00 | 82 | 1010.2 |
| 20260506113910 | 59 | 182 | 1.0 | 2.0 | 0.00 | 0.00 | 0.00 | 84 | 1010.2 |
| 20260506113407 | 59 | 117 | 0.0 | 2.0 | 0.00 | 0.00 | 0.00 | 84 | 1010.2 |
| 20260506112903 | 59 | 103 | 2.0 | 2.0 | 0.00 | 0.00 | 0.00 | 84 | 1010.2 |
| 20260506112401 | 59 | 80 | 3.0 | 3.0 | 0.00 | 0.00 | 0.00 | 84 | 1010.1 |
| 20260506111857 | 59 | 172 | 2.0 | 3.0 | 0.00 | 0.00 | 0.00 | 84 | 1009.9 |
| 20260506111356 | 59 | 86 | 2.0 | 2.0 | 0.00 | 0.00 | 0.00 | 86 | 1010.0 |
| 20260506110853 | 58 | 161 | 1.0 | 2.0 | 0.00 | 0.00 | 0.00 | 87 | 1010.1 |
| 20260506110350 | 57 | 248 | 2.0 | 2.0 | 0.00 | 0.00 | 0.00 | 88 | 1010.1 |
| 20260506105847 | 57 | 181 | 3.0 | 3.0 | 0.00 | 0.00 | 0.00 | 88 | 1010.2 |
| 20260506105343 | 57 | 198 | 3.0 | 3.0 | 0.00 | 0.00 | 0.00 | 89 | 1010.3 |
| 20260506104841 | 56 | 278 | 2.0 | 3.0 | 0.00 | 0.00 | 0.00 | 90 | 1009.9 |
| 20260506104339 | 56 | 253 | 3.0 | 3.0 | 0.00 | 0.00 | 0.00 | 91 | 1009.9 |
| 20260506103836 | 55 | 219 | 2.0 | 2.0 | 0.00 | 0.00 | 0.00 | 92 | 1009.9 |
| 20260506103333 | 55 | 230 | 3.0 | 5.0 | 0.00 | 0.00 | 0.00 | 92 | 1009.9 |
| 20260506102831 | 55 | 64 | 3.0 | 3.0 | 0.00 | 0.00 | 0.00 | 92 | 1009.9 |
| 20260506102328 | 55 | 108 | 0.0 | 2.0 | 0.00 | 0.00 | 0.00 | 92 | 1009.9 |
| 20260506101826 | 55 | 112 | 2.0 | 3.0 | 0.00 | 0.00 | 0.00 | 92 | 1010.1 |
| 20260506101321 | 55 | 288 | 0.0 | 2.0 | 0.00 | 0.00 | 0.00 | 92 | 1009.8 |
| 20260506100820 | 55 | 257 | 0.0 | 2.0 | 0.00 | 0.00 | 0.00 | 93 | 1009.9 |
| 20260506100318 | 55 | 220 | 2.0 | 2.0 | 0.00 | 0.00 | 0.00 | 93 | 1009.9 |
| 20260506095816 | 55 | 104 | 3.0 | 3.0 | 0.00 | 0.00 | 0.00 | 93 | 1009.8 |
| 20260506095313 | 55 | 209 | 2.0 | 2.0 | 0.00 | 0.00 | 0.00 | 92 | 1010.0 |
| 20260506094809 | 55 | 261 | 2.0 | 2.0 | 0.00 | 0.00 | 0.00 | 92 | 1009.9 |
| 20260506094308 | 55 | 133 | 1.0 | 2.0 | 0.00 | 0.00 | 0.00 | 92 | 1010.0 |
| 20260506093806 | 55 | 102 | 0.0 | 0.0 | 0.00 | 0.00 | 0.00 | 92 | 1009.7 |
| 20260506093302 | 55 | 305 | 2.0 | 2.0 | 0.00 | 0.00 | 0.00 | 92 | 1009.7 |
| 20260506092801 | 55 | 93 | 0.0 | 0.0 | 0.00 | 0.00 | 0.00 | 92 | 1009.8 |
| 20260506092258 | 55 | 207 | 5.0 | 7.0 | 0.00 | 0.00 | 0.00 | 92 | 1009.9 |
| 20260506091755 | 55 | 204 | 3.0 | 3.0 | 0.00 | 0.00 | 0.00 | 92 | 1010.0 |
| 20260506091253 | 55 | 123 | 3.0 | 5.0 | 0.00 | 0.00 | 0.00 | 91 | 1009.9 |
| 20260506090750 | 55 | 217 | 2.0 | 2.0 | 0.00 | 0.00 | 0.00 | 91 | 1009.7 |
| 20260506090247 | 55 | 236 | 2.0 | 3.0 | 0.00 | 0.00 | 0.00 | 91 | 1009.8 |
| 20260506085744 | 55 | 98 | 2.0 | 3.0 | 0.00 | 0.00 | 0.00 | 91 | 1009.8 |
| 20260506085240 | 55 | 310 | 2.0 | 2.0 | 0.00 | 0.00 | 0.00 | 91 | 1010.2 |
| 20260506084737 | 55 | 125 | 0.0 | 2.0 | 0.00 | 0.00 | 0.00 | 91 | 1010.0 |
| 20260506084233 | 55 | 144 | 2.0 | 2.0 | 0.00 | 0.00 | 0.00 | 91 | 1010.0 |
| 20260506083730 | 55 | 88 | 0.0 | 2.0 | 0.00 | 0.00 | 0.00 | 91 | 1010.2 |
| 20260506083228 | 55 | 207 | 1.0 | 2.0 | 0.00 | 0.00 | 0.00 | 91 | 1010.4 |
| 20260506082725 | 55 | 271 | 3.0 | 5.0 | 0.00 | 0.00 | 0.00 | 91 | 1010.3 |
| 20260506082220 | 55 | 210 | 2.0 | 3.0 | 0.00 | 0.00 | 0.00 | 91 | 1010.3 |
| 20260506081719 | 55 | 112 | 2.0 | 2.0 | 0.00 | 0.00 | 0.00 | 91 | 1010.3 |
| 20260506081216 | 55 | 295 | 0.0 | 2.0 | 0.00 | 0.00 | 0.00 | 91 | 1010.5 |
| 20260506080714 | 55 | 235 | 5.0 | 7.0 | 0.00 | 0.00 | 0.00 | 91 | 1010.3 |
| 20260506080210 | 54 | 173 | 3.0 | 3.0 | 0.00 | 0.00 | 0.00 | 91 | 1010.4 |
| 20260506073154 | 55 | 77 | 4.0 | 5.0 | 0.00 | 0.00 | 0.00 | 90 | 1010.3 |
| 20260506072650 | 55 | 44 | 2.0 | 3.0 | 0.00 | 0.00 | 0.00 | 90 | 1010.3 |
| 20260506072148 | 55 | 53 | 4.0 | 5.0 | 0.00 | 0.00 | 0.00 | 90 | 1010.3 |
| 20260506071646 | 55 | 110 | 3.0 | 3.0 | 0.00 | 0.00 | 0.00 | 90 | 1010.4 |
| 20260506071143 | 55 | 261 | 1.0 | 2.0 | 0.00 | 0.00 | 0.00 | 90 | 1010.4 |
| 20260506070640 | 55 | 130 | 0.0 | 2.0 | 0.00 | 0.00 | 0.00 | 90 | 1010.5 |
| 20260506070137 | 55 | 105 | 1.0 | 2.0 | 0.00 | 0.00 | 0.00 | 90 | 1010.4 |
| 20260506062114 | 55 | 221 | 0.0 | 2.0 | 0.00 | 0.00 | 0.00 | 89 | 1010.4 |
| 20260506061610 | 55 | 146 | 0.0 | 2.0 | 0.00 | 0.00 | 0.00 | 89 | 1010.5 |
| 20260506061108 | 55 | 152 | 3.0 | 3.0 | 0.00 | 0.00 | 0.00 | 89 | 1010.6 |
| 20260506060606 | 55 | 152 | 3.0 | 3.0 | 0.00 | 0.00 | 0.00 | 89 | 1010.5 |
| 20260506051035 | 55 | 187 | 2.0 | 2.0 | 0.00 | 0.00 | 0.00 | 88 | 1011.0 |
| 20260506050533 | 56 | 231 | 3.0 | 5.0 | 0.00 | 0.00 | 0.00 | 88 | 1011.0 |
| 20260506045023 | 56 | 110 | 3.0 | 3.0 | 0.00 | 0.00 | 0.00 | 87 | 1011.0 |
| 20260506044521 | 56 | 126 | 1.0 | 2.0 | 0.00 | 0.00 | 0.00 | 87 | 1010.9 |
| 20260506044018 | 56 | 248 | 2.0 | 3.0 | 0.00 | 0.00 | 0.00 | 87 | 1011.1 |
| 20260506043515 | 56 | 164 | 4.0 | 10.0 | 0.00 | 0.00 | 0.00 | 87 | 1011.0 |
| 20260506043013 | 56 | 129 | 4.0 | 7.0 | 0.00 | 0.00 | 0.00 | 87 | 1011.0 |
| 20260506042512 | 56 | 210 | 6.0 | 10.0 | 0.00 | 0.00 | 0.00 | 87 | 1011.0 |
| 20260506042010 | 56 | 125 | 1.0 | 2.0 | 0.00 | 0.00 | 0.00 | 86 | 1011.0 |
| 20260506041508 | 56 | 318 | 2.0 | 3.0 | 0.00 | 0.00 | 0.00 | 86 | 1011.1 |
| 20260506041004 | 56 | 238 | 1.0 | 2.0 | 0.00 | 0.00 | 0.00 | 86 | 1011.1 |
| 20260506040502 | 56 | 145 | 2.0 | 2.0 | 0.00 | 0.00 | 0.00 | 86 | 1010.7 |
| 20260506035958 | 57 | 172 | 2.0 | 3.0 | 0.00 | 0.00 | 0.00 | 85 | 1010.9 |
| 20260506035455 | 57 | 239 | 3.0 | 3.0 | 0.00 | 0.00 | 0.00 | 85 | 1011.0 |
| 20260506034951 | 57 | 185 | 3.0 | 3.0 | 0.00 | 0.00 | 0.00 | 85 | 1010.8 |
| 20260506034449 | 57 | 239 | 2.0 | 3.0 | 0.00 | 0.00 | 0.00 | 84 | 1010.7 |
| 20260506033946 | 57 | 222 | 3.0 | 5.0 | 0.00 | 0.00 | 0.00 | 84 | 1011.0 |
| 20260506033444 | 57 | 238 | 2.0 | 3.0 | 0.00 | 0.00 | 0.00 | 84 | 1010.8 |
| 20260506032940 | 57 | 283 | 3.0 | 7.0 | 0.00 | 0.00 | 0.00 | 83 | 1010.9 |
| 20260506032437 | 58 | 121 | 2.0 | 3.0 | 0.00 | 0.00 | 0.00 | 82 | 1010.7 |
| 20260506031934 | 58 | 83 | 2.0 | 3.0 | 0.00 | 0.00 | 0.00 | 82 | 1010.7 |
| 20260506031431 | 59 | 194 | 2.0 | 3.0 | 0.00 | 0.00 | 0.00 | 81 | 1010.7 |
| 20260506030929 | 59 | 185 | 2.0 | 2.0 | 0.00 | 0.00 | 0.00 | 81 | 1010.7 |
| 20260506030427 | 59 | 104 | 0.0 | 2.0 | 0.00 | 0.00 | 0.00 | 80 | 1010.5 |
| 20260506025923 | 59 | 69 | 0.0 | 0.0 | 0.00 | 0.00 | 0.00 | 80 | 1010.8 |
| 20260506025420 | 59 | 92 | 0.0 | 0.0 | 0.00 | 0.00 | 0.00 | 80 | 1010.6 |
| 20260506024917 | 59 | 111 | 2.0 | 2.0 | 0.00 | 0.00 | 0.00 | 80 | 1010.7 |
| 20260506024414 | 59 | 98 | 0.0 | 0.0 | 0.00 | 0.00 | 0.00 | 80 | 1010.7 |
| 20260506023909 | 59 | 89 | 0.0 | 0.0 | 0.00 | 0.00 | 0.00 | 80 | 1010.7 |
| 20260506023407 | 58 | 165 | 1.0 | 2.0 | 0.00 | 0.00 | 0.00 | 80 | 1010.8 |
| 20260506022903 | 58 | 121 | 0.0 | 2.0 | 0.00 | 0.00 | 0.00 | 80 | 1010.6 |
| 20260506022401 | 58 | 248 | 1.0 | 2.0 | 0.00 | 0.00 | 0.00 | 80 | 1010.7 |
| 20260506021859 | 58 | 60 | 1.0 | 2.0 | 0.00 | 0.00 | 0.00 | 80 | 1010.7 |
| 20260506021355 | 59 | 164 | 1.0 | 2.0 | 0.00 | 0.00 | 0.00 | 80 | 1010.9 |
| 20260506020852 | 59 | 172 | 5.0 | 7.0 | 0.00 | 0.00 | 0.00 | 80 | 1010.7 |
| 20260506020350 | 59 | 193 | 4.0 | 5.0 | 0.00 | 0.00 | 0.00 | 80 | 1010.8 |
| 20260506015847 | 59 | 53 | 2.0 | 3.0 | 0.00 | 0.00 | 0.00 | 79 | 1010.5 |
| 20260506015345 | 59 | 209 | 2.0 | 3.0 | 0.00 | 0.00 | 0.00 | 79 | 1010.7 |
| 20260506014842 | 60 | 1 | 2.0 | 3.0 | 0.00 | 0.00 | 0.00 | 79 | 1010.6 |
| 20260506014338 | 60 | 91 | 1.0 | 2.0 | 0.00 | 0.00 | 0.00 | 80 | 1010.5 |
| 20260506013835 | 60 | 148 | 2.0 | 2.0 | 0.00 | 0.00 | 0.00 | 80 | 1010.4 |
| 20260506013333 | 60 | 246 | 3.0 | 3.0 | 0.00 | 0.00 | 0.00 | 79 | 1010.3 |
| 20260506012829 | 60 | 130 | 2.0 | 2.0 | 0.00 | 0.00 | 0.00 | 78 | 1010.5 |
| 20260506012326 | 60 | 254 | 1.0 | 2.0 | 0.00 | 0.00 | 0.00 | 78 | 1010.5 |
| 20260506011823 | 61 | 242 | 2.0 | 2.0 | 0.00 | 0.00 | 0.00 | 77 | 1010.6 |
| 20260506011320 | 61 | 96 | 2.0 | 3.0 | 0.00 | 0.00 | 0.00 | 77 | 1010.1 |
| 20260506010817 | 61 | 179 | 1.0 | 2.0 | 0.00 | 0.00 | 0.00 | 77 | 1010.0 |
| 20260506010315 | 61 | 182 | 0.0 | 2.0 | 0.00 | 0.00 | 0.00 | 77 | 1010.1 |
| 20260506005812 | 60 | 83 | 2.0 | 3.0 | 0.00 | 0.00 | 0.00 | 78 | 1010.1 |
| 20260506005308 | 60 | 7 | 2.0 | 3.0 | 0.00 | 0.00 | 0.00 | 78 | 1010.1 |
| 20260506004805 | 61 | 303 | 2.0 | 2.0 | 0.00 | 0.00 | 0.00 | 77 | 1010.1 |
| 20260506004303 | 61 | 241 | 2.0 | 3.0 | 0.00 | 0.00 | 0.00 | 76 | 1009.8 |
| 20260506003758 | 62 | 252 | 4.0 | 7.0 | 0.00 | 0.00 | 0.00 | 76 | 1009.9 |
| 20260506003255 | 62 | 140 | 3.0 | 5.0 | 0.00 | 0.00 | 0.00 | 75 | 1009.5 |
| 20260506002751 | 62 | 228 | 3.0 | 5.0 | 0.00 | 0.00 | 0.00 | 75 | 1009.8 |
| 20260506002247 | 62 | 74 | 2.0 | 2.0 | 0.00 | 0.00 | 0.00 | 74 | 1009.9 |
| 20260506001743 | 62 | 247 | 5.0 | 10.0 | 0.00 | 0.00 | 0.00 | 74 | 1009.4 |
| 20260506001241 | 62 | 269 | 6.0 | 10.0 | 0.00 | 0.00 | 0.00 | 75 | 1009.6 |
| 20260506000738 | 62 | 94 | 3.0 | 3.0 | 0.00 | 0.00 | 0.00 | 76 | 1009.5 |
| 20260506000235 | 61 | 179 | 4.0 | 5.0 | 0.00 | 0.00 | 0.00 | 76 | 1009.4 |
| 20260505235732 | 61 | 143 | 3.0 | 3.0 | 0.00 | 0.00 | 0.00 | 76 | 1009.5 |
| 20260505235230 | 61 | 226 | 3.0 | 3.0 | 0.00 | 0.00 | 0.00 | 76 | 1009.5 |
| 20260505234726 | 62 | 59 | 4.0 | 5.0 | 0.00 | 0.00 | 0.00 | 76 | 1009.4 |
| 20260505234224 | 62 | 211 | 2.0 | 3.0 | 0.00 | 0.00 | 0.00 | 76 | 1009.3 |
| 20260505233720 | 62 | 280 | 3.0 | 5.0 | 0.00 | 0.00 | 0.00 | 75 | 1009.2 |
| 20260505233218 | 62 | 111 | 1.0 | 2.0 | 0.00 | 0.00 | 0.00 | 75 | 1009.0 |
| 20260505232715 | 62 | 353 | 4.0 | 7.0 | 0.00 | 0.00 | 0.00 | 75 | 1009.1 |
| 20260505232213 | 62 | 338 | 3.0 | 7.0 | 0.00 | 0.00 | 0.00 | 75 | 1008.9 |
| 20260505231709 | 62 | 206 | 5.0 | 9.0 | 0.00 | 0.00 | 0.00 | 75 | 1008.8 |
| 20260505231208 | 62 | 1 | 4.0 | 5.0 | 0.00 | 0.00 | 0.00 | 75 | 1008.8 |
| 20260505230706 | 62 | 173 | 3.0 | 5.0 | 0.00 | 0.00 | 0.00 | 74 | 1008.7 |
| 20260505230202 | 62 | 262 | 4.0 | 7.0 | 0.00 | 0.00 | 0.00 | 74 | 1008.7 |
| 20260505225659 | 62 | 81 | 2.0 | 3.0 | 0.00 | 0.00 | 0.00 | 75 | 1008.8 |
| 20260505225155 | 62 | 147 | 3.0 | 5.0 | 0.00 | 0.00 | 0.00 | 75 | 1008.7 |
| 20260505224651 | 62 | 337 | 2.0 | 2.0 | 0.00 | 0.00 | 0.00 | 75 | 1008.7 |
| 20260505224149 | 62 | 132 | 4.0 | 9.0 | 0.00 | 0.00 | 0.00 | 75 | 1008.8 |
| 20260505223646 | 62 | 65 | 3.0 | 3.0 | 0.00 | 0.00 | 0.00 | 74 | 1008.8 |
| 20260505223142 | 63 | 291 | 3.0 | 5.0 | 0.00 | 0.00 | 0.00 | 73 | 1008.9 |
| 20260505222638 | 63 | 42 | 0.0 | 2.0 | 0.00 | 0.00 | 0.00 | 73 | 1008.6 |
| 20260505222135 | 63 | 218 | 3.0 | 5.0 | 0.00 | 0.00 | 0.00 | 74 | 1008.4 |
| 20260505221632 | 63 | 250 | 3.0 | 5.0 | 0.00 | 0.00 | 0.00 | 74 | 1008.5 |
| 20260505221128 | 62 | 75 | 4.0 | 7.0 | 0.00 | 0.00 | 0.00 | 74 | 1008.5 |
| 20260505220626 | 63 | 257 | 5.0 | 7.0 | 0.00 | 0.00 | 0.00 | 74 | 1008.3 |
| 20260505220123 | 64 | 323 | 4.0 | 7.0 | 0.00 | 0.00 | 0.00 | 72 | 1008.4 |
| 20260505215621 | 64 | 144 | 6.0 | 9.0 | 0.00 | 0.00 | 0.00 | 71 | 1008.2 |
| 20260505215119 | 64 | 357 | 3.0 | 5.0 | 0.00 | 0.00 | 0.00 | 72 | 1008.3 |
| 20260505214617 | 64 | 231 | 4.0 | 5.0 | 0.00 | 0.00 | 0.00 | 70 | 1008.2 |
| 20260505214114 | 65 | 189 | 3.0 | 5.0 | 0.00 | 0.00 | 0.00 | 70 | 1008.2 |
| 20260505213611 | 65 | 292 | 3.0 | 3.0 | 0.00 | 0.00 | 0.00 | 69 | 1008.1 |
| 20260505213108 | 65 | 142 | 2.0 | 3.0 | 0.00 | 0.00 | 0.00 | 68 | 1008.2 |
| 20260505212603 | 65 | 66 | 3.0 | 3.0 | 0.00 | 0.00 | 0.00 | 68 | 1008.3 |
| 20260505212101 | 65 | 259 | 3.0 | 5.0 | 0.00 | 0.00 | 0.00 | 69 | 1008.4 |
| 20260505211552 | 66 | 64 | 1.0 | 2.0 | 0.00 | 0.00 | 0.00 | 68 | 1008.1 |
| 20260505211050 | 66 | 271 | 2.0 | 3.0 | 0.00 | 0.00 | 0.00 | 68 | 1008.3 |
| 20260505210546 | 66 | 156 | 3.0 | 3.0 | 0.00 | 0.00 | 0.00 | 69 | 1008.0 |
| 20260505210043 | 67 | 37 | 2.0 | 2.0 | 0.00 | 0.00 | 0.00 | 67 | 1007.9 |
| 20260505205541 | 66 | 331 | 3.0 | 7.0 | 0.00 | 0.00 | 0.00 | 68 | 1008.1 |
| 20260505205038 | 66 | 112 | 3.0 | 5.0 | 0.00 | 0.00 | 0.00 | 67 | 1008.2 |
| 20260505204536 | 66 | 62 | 3.0 | 3.0 | 0.00 | 0.00 | 0.00 | 66 | 1008.1 |
| 20260505204033 | 66 | 49 | 2.0 | 2.0 | 0.00 | 0.00 | 0.00 | 67 | 1008.3 |
| 20260505203529 | 66 | 289 | 3.0 | 5.0 | 0.00 | 0.00 | 0.00 | 68 | 1008.4 |
| 20260505203027 | 66 | 80 | 2.0 | 3.0 | 0.00 | 0.00 | 0.00 | 67 | 1008.3 |
| 20260505202522 | 66 | 175 | 4.0 | 5.0 | 0.00 | 0.00 | 0.00 | 67 | 1008.4 |
| 20260505202018 | 67 | 191 | 2.0 | 3.0 | 0.00 | 0.00 | 0.00 | 67 | 1008.7 |
| 20260505201516 | 66 | 137 | 3.0 | 3.0 | 0.00 | 0.00 | 0.00 | 67 | 1008.5 |
| 20260505201013 | 67 | 301 | 4.0 | 7.0 | 0.00 | 0.00 | 0.00 | 66 | 1008.5 |
| 20260505200511 | 67 | 280 | 4.0 | 5.0 | 0.00 | 0.00 | 0.00 | 66 | 1008.5 |
| 20260505200008 | 68 | 265 | 2.0 | 3.0 | 0.00 | 0.00 | 0.00 | 66 | 1008.5 |
| 20260505195504 | 68 | 227 | 3.0 | 5.0 | 0.00 | 0.00 | 0.00 | 65 | 1008.6 |
| 20260505195001 | 68 | 82 | 2.0 | 3.0 | 0.00 | 0.00 | 0.00 | 64 | 1008.6 |
| 20260505194459 | 68 | 68 | 1.0 | 2.0 | 0.00 | 0.00 | 0.00 | 64 | 1008.5 |
| 20260505193958 | 69 | 279 | 5.0 | 7.0 | 0.00 | 0.00 | 0.00 | 64 | 1008.7 |
| 20260505193456 | 69 | 237 | 4.0 | 5.0 | 0.00 | 0.00 | 0.00 | 63 | 1008.6 |
| 20260505192953 | 69 | 221 | 2.0 | 3.0 | 0.00 | 0.00 | 0.00 | 62 | 1009.1 |
| 20260505192452 | 69 | 151 | 7.0 | 12.0 | 0.00 | 0.00 | 0.00 | 62 | 1008.8 |
| 20260505191949 | 69 | 338 | 3.0 | 5.0 | 0.00 | 0.00 | 0.00 | 61 | 1009.2 |
| 20260505191448 | 70 | 3 | 4.0 | 5.0 | 0.00 | 0.00 | 0.00 | 62 | 1008.9 |
| 20260505190944 | 69 | 93 | 1.0 | 2.0 | 0.00 | 0.00 | 0.00 | 62 | 1009.3 |
| 20260505190439 | 69 | 173 | 2.0 | 2.0 | 0.00 | 0.00 | 0.00 | 62 | 1009.4 |
| 20260505185935 | 69 | 123 | 1.0 | 2.0 | 0.00 | 0.00 | 0.00 | 64 | 1009.5 |
| 20260505185433 | 68 | 44 | 2.0 | 2.0 | 0.00 | 0.00 | 0.00 | 64 | 1009.5 |
| 20260505184928 | 69 | 243 | 2.0 | 3.0 | 0.00 | 0.00 | 0.00 | 63 | 1009.6 |
| 20260505184425 | 69 | 26 | 2.0 | 3.0 | 0.00 | 0.00 | 0.00 | 64 | 1009.8 |
| 20260505183916 | 67 | 267 | 3.0 | 3.0 | 0.00 | 0.00 | 0.00 | 66 | 1009.6 |
| 20260505183413 | 68 | 313 | 2.0 | 3.0 | 0.00 | 0.00 | 0.00 | 65 | 1009.9 |
| 20260505182910 | 68 | 232 | 2.0 | 3.0 | 0.00 | 0.00 | 0.00 | 66 | 1009.9 |
| 20260505182407 | 67 | 187 | 3.0 | 5.0 | 0.00 | 0.00 | 0.00 | 66 | 1010.0 |
| 20260505181903 | 66 | 113 | 4.0 | 5.0 | 0.00 | 0.00 | 0.00 | 68 | 1009.9 |
| 20260505181401 | 67 | 86 | 3.0 | 5.0 | 0.00 | 0.00 | 0.00 | 67 | 1009.9 |
| 20260505180857 | 67 | 277 | 3.0 | 5.0 | 0.00 | 0.00 | 0.00 | 67 | 1010.0 |
| 20260505180354 | 67 | 256 | 7.0 | 9.0 | 0.00 | 0.00 | 0.00 | 67 | 1010.1 |
| 20260505175850 | 66 | 269 | 4.0 | 7.0 | 0.00 | 0.00 | 0.00 | 68 | 1010.2 |
| 20260505175347 | 66 | 137 | 4.0 | 5.0 | 0.00 | 0.00 | 0.00 | 68 | 1010.0 |
| 20260505174843 | 67 | 121 | 3.0 | 3.0 | 0.00 | 0.00 | 0.00 | 67 | 1010.2 |
| 20260505174341 | 66 | 237 | 5.0 | 7.0 | 0.00 | 0.00 | 0.00 | 68 | 1010.2 |
| 20260505173837 | 67 | 268 | 5.0 | 7.0 | 0.00 | 0.00 | 0.00 | 69 | 1010.3 |
| 20260505173333 | 67 | 292 | 5.0 | 7.0 | 0.00 | 0.00 | 0.00 | 67 | 1010.5 |
| 20260505172831 | 67 | 99 | 4.0 | 7.0 | 0.00 | 0.00 | 0.00 | 67 | 1010.3 |
| 20260505172328 | 67 | 289 | 2.0 | 3.0 | 0.00 | 0.00 | 0.00 | 67 | 1010.3 |
| 20260505171827 | 66 | 236 | 7.0 | 10.0 | 0.00 | 0.00 | 0.00 | 68 | 1010.4 |
| 20260505171325 | 66 | 215 | 3.0 | 3.0 | 0.00 | 0.00 | 0.00 | 68 | 1010.3 |
| 20260505170821 | 67 | 212 | 3.0 | 5.0 | 0.00 | 0.00 | 0.00 | 66 | 1010.5 |
| 20260505170318 | 67 | 79 | 3.0 | 3.0 | 0.00 | 0.00 | 0.00 | 66 | 1010.5 |
| 20260505165814 | 67 | 150 | 3.0 | 5.0 | 0.00 | 0.00 | 0.00 | 68 | 1010.5 |
| 20260505165309 | 66 | 250 | 3.0 | 3.0 | 0.00 | 0.00 | 0.00 | 68 | 1010.5 |
| 20260505164805 | 66 | 92 | 3.0 | 5.0 | 0.00 | 0.00 | 0.00 | 68 | 1010.6 |
| 20260505164303 | 67 | 267 | 3.0 | 5.0 | 0.00 | 0.00 | 0.00 | 66 | 1010.7 |
| 20260505163801 | 67 | 284 | 5.0 | 9.0 | 0.00 | 0.00 | 0.00 | 66 | 1010.9 |
| 20260505163259 | 68 | 115 | 2.0 | 2.0 | 0.00 | 0.00 | 0.00 | 65 | 1010.8 |
| 20260505162756 | 70 | 84 | 2.0 | 3.0 | 0.00 | 0.00 | 0.00 | 63 | 1010.6 |
| 20260505162252 | 69 | 298 | 2.0 | 3.0 | 0.00 | 0.00 | 0.00 | 63 | 1010.6 |
| 20260505161750 | 68 | 243 | 2.0 | 2.0 | 0.00 | 0.00 | 0.00 | 64 | 1011.0 |
| 20260505161247 | 69 | 223 | 2.0 | 3.0 | 0.00 | 0.00 | 0.00 | 63 | 1011.0 |
| 20260505160744 | 69 | 254 | 4.0 | 7.0 | 0.00 | 0.00 | 0.00 | 62 | 1010.7 |
| 20260505160242 | 69 | 104 | 2.0 | 3.0 | 0.00 | 0.00 | 0.00 | 63 | 1011.0 |
| 20260505153221 | 67 | 65 | 1.0 | 2.0 | 0.00 | 0.00 | 0.00 | 64 | 1011.0 |
| 20260505152718 | 67 | 257 | 3.0 | 5.0 | 0.00 | 0.00 | 0.00 | 65 | 1011.1 |
| 20260505152214 | 68 | 257 | 2.0 | 3.0 | 0.00 | 0.00 | 0.00 | 64 | 1011.4 |
| 20260505151709 | 68 | 275 | 4.0 | 5.0 | 0.00 | 0.00 | 0.00 | 63 | 1011.4 |
| 20260505151207 | 67 | 289 | 3.0 | 3.0 | 0.00 | 0.00 | 0.00 | 64 | 1011.3 |
| 20260505150703 | 68 | 189 | 3.0 | 3.0 | 0.00 | 0.00 | 0.00 | 64 | 1011.3 |
| 20260505150201 | 69 | 98 | 6.0 | 7.0 | 0.00 | 0.00 | 0.00 | 64 | 1011.3 |
| 20260505140633 | 66 | 235 | 4.0 | 5.0 | 0.00 | 0.00 | 0.00 | 68 | 1011.7 |
| 20260505140131 | 67 | 94 | 3.0 | 5.0 | 0.00 | 0.00 | 0.00 | 66 | 1011.7 |